Погода в Сеттате

Марокко     33°00′18″N   7°37′23″W
темп.,
°C
ветер,
м/с
пор.,
м/с
влажн.,
%
обл.,
%
осадки,
мм/ч
давл.,
гПа
погр.,
м
26 января, вт
вт2601:00+11всв23850 0.0 102623
04:00+11всв34810 0.0 102632
07:00+10всв33820 0.0 102626
10:00+13всв34750 0.0 1027145
13:00+18св57600 0.0 1027502
16:00+20ссв56540 0.0 1024604
19:00+14ссв48900 0.0 1025174
22:00+12св59940 0.0 1027204
27 января, ср
ср2701:00+12всв59910 0.0 1027165
04:00+13всв45780 0.0 102567
07:00+13всв34800 0.0 102536
10:00+16всв24720 0.0 1026129
13:00+21св45580 0.0 1025552
16:00+22ссв45580 0.0 1023664
19:00+16ссв46890 0.0 1024121
22:00+14св47930 0.0 1025127
28 января, чт
чт2801:00+14всв23850 0.0 102428
04:00+14вюв12770 0.0 102223
07:00+14ююв22720 0.0 102223
10:00+18ююв23640 0.0 102352
13:00+23ююз22450 0.0 1023645
16:00+24зюз32430 0.0 10221018
19:00+17зсз22760 0.0 102323
22:00+14вюв01830 0.0 102423
29 января, пт
пт2901:00+14ю01830 0.0 102423
04:00+13ю12830 0.0 102323
07:00+12ю11840 0.0 102323
10:00+17ю35690 0.0 1024119
13:00+22юз45490 0.0 1025677
16:00+23зюз34420 0.0 1023831
19:00+16зсз23750 0.0 102423
22:00+12с12920 0.0 102623
30 января, сб
сб3001:00+12вюв11870 0.0 102623
04:00+12ююз12720 0.0 102523
07:00+10юв12810 0.0 102423
10:00+16юв11593 0.0 102645
13:00+20ссз32508 0.0 1025568
16:00+20ссз33557 0.0 1024634
19:00+14с48923 0.0 1024164
22:00+12ссв579664 0.0 1027323